{"data":{"norad_id":57409,"intl_designator":"2023-102F","name":"STARLINK-30222","alt_names":[],"object_type":"PAYLOAD","status":"ACTIVE","operator":null,"country":"US","launch_date":"2023-07-20","launch_site_code":"AFWTR","launch_vehicle":null,"mission":null,"orbit_class":"UNKNOWN","rcs_meters":null,"size_class":null,"mass_kg":null,"dimensions":null,"purposes":["comms"],"wikipedia_slug":null,"has_3d_model":false,"image_url":null,"decayed_at":null,"tle_current":{"epoch":"2026-09-20T22:48:54.228096Z","epoch_age_seconds":88685,"freshness":"FRESH","line1":"1 57409U 23102F   26263.95062764 -.00000001  00000+0  95050-5 0  9996","line2":"2 57409  43.0040 225.7655 0001113 279.4418  80.6307 15.27567228176105","mean_motion":15.27567228,"eccentricity":0.0001113,"inclination_deg":43.004,"raan_deg":225.7655,"arg_perigee_deg":279.4418,"mean_anomaly_deg":80.6307,"bstar":9.505e-6,"rev_number":17610,"period_min":94.26753687858,"perigee_km":482.32368599975,"apogee_km":483.85099453789,"semimajor_km":6861.2243402688,"source":"CELESTRAK","updated_at":"2026-09-21T09:00:33.623495Z"}}}